Погода в Альметьевске

Россия / Республика Татарстан     54°54′04″N   52°17′49″E
темп.,
°C
ветер,
м/с
пор.,
м/с
влажн.,
%
обл.,
%
осадки,
мм/ч
давл.,
гПа
погр.,
м
25 мая, ср
ср2500:00+5св2291100 0.0 100718
03:00+5ссз119078 0.0 100610
06:00+8св228011 0.0 1006282
09:00+10зсз327399 0.0 1006768
12:00+6зсз6689100 0.1 1009518
15:00+6з4689100 0.1 1010649
18:00+8з46695 0.1 10101001
21:00+4зюз388931 0.1 1012146
26 мая, чт
чт2600:00+2юз38925 0.0 1013167
03:00+2юз38935 0.0 1014143
06:00+5зюз48825 0.0 1015437
09:00+10зюз566026 0.0 10151434
12:00+12юз564989 0.1 10152123
15:00+11юз576178 0.1 10151449
18:00+10юз486799 0.1 1014538
21:00+8ю397599 0.1 1014254
27 мая, пт
пт2700:00+6ююз3785100 0.0 1013124
03:00+5ю31186100 0.0 1012214
06:00+9ю51274100 0.0 1011442
09:00+11ю71370100 0.0 1010798
12:00+11ююв81573100 0.0 1008880
15:00+14ю8137957 0.1 10071281
18:00+13ю712845 0.8 1006658
21:00+10ююв410935 1.3 1007259
28 мая, сб
сб2800:00+10ю5119447 0.0 1007373
03:00+10ююз489296 0.0 1009464
06:00+11юз589190 0.0 1011494
09:00+13юз5779100 0.1 10111006
12:00+15юз677199 0.1 10131124
15:00+19юз796029 0.1 10131768
18:00+17ююз51072100 0.0 1013419
21:00+13ю41385100 0.0 1015294
29 мая, вс
вс2900:00+15ююз61668100 0.0 1015548
03:00+13ююз3108498 0.2 1016276
06:00+14ююз598351 0.1 1017404
09:00+18юз687371 0.1 10181067
12:00+19ююз797793 1.0 1018914
15:00+20зюз687598 1.6 10181023
18:00+16сз349193 1.4 1018278
21:00+13ссв1195100 1.6 101914